Wind_Speed
19 19 19 18 17 16 16 15 14 15 15 14 14 14 15 16 15 14 12 11 11 12 11 11 12 12 12 12 12 12 12 13 14 13 12 11 12 13 13 13 13 12 12 12 12 13 13 13 14 14 14 15 15 15 16 16 15 16 15 15 15 15 15 15 15 16 16 16 16 16 15 15 15 15
20 21 21 20 19 18 17 16 16 16 15 14 14 14 14 15 15 15 13 11 11 12 12 13 13 14 14 13 13 13 14 15 15 14 13 13 13 14 14 14 14 13 13 13 13 14 14 15 15 15 16 16 16 16 17 17 17 16 16 16 16 16 16 15 16 16 17 17 17 16 16 16 16 15
22 22 22 22 20 19 18 18 17 17 16 15 14 14 14 14 14 15 14 11 10 12 13 14 14 15 15 15 14 14 15 16 16 16 15 15 15 16 16 16 16 15 15 15 15 15 15 16 16 17 18 18 18 18 18 18 17 17 17 17 17 17 17 16 17 17 17 17 17 17 17 17 17 16
24 24 24 23 22 21 20 19 19 18 18 17 16 14 13 13 14 15 15 13 10 11 14 14 15 15 16 16 15 16 16 17 17 17 16 16 17 17 17 17 17 17 17 17 17 17 17 17 18 19 19 19 19 19 19 18 18 18 18 18 18 18 18 18 18 19 19 19 19 18 18 17 17 17
24 24 25 24 23 22 21 20 20 20 19 18 17 15 13 13 13 14 15 14 11 10 13 15 15 16 16 16 16 16 17 18 19 18 18 18 18 18 18 18 18 18 18 18 18 19 19 19 20 20 20 20 20 20 20 19 19 18 18 18 18 19 19 19 19 20 21 21 21 20 19 19 18 18
24 25 25 25 24 23 23 21 21 21 21 20 18 16 13 12 12 13 14 15 12 11 12 14 16 16 15 15 16 17 18 19 20 20 19 20 19 19 19 19 19 19 19 19 20 20 20 21 21 22 22 22 22 21 20 20 19 19 19 19 19 19 19 20 20 21 21 22 22 22 21 20 20 19
25 25 25 25 25 25 24 23 22 22 22 21 19 17 15 13 13 14 14 15 14 12 12 14 15 16 16 15 16 17 18 19 19 20 20 20 20 20 20 21 21 21 22 22 22 22 22 22 23 23 23 24 24 23 21 21 20 20 21 21 21 20 20 21 21 21 21 22 22 22 22 21 21 20
26 26 25 24 25 26 26 25 24 23 22 21 20 19 17 15 14 15 16 16 16 15 14 14 15 17 17 17 17 18 18 19 19 19 19 20 20 20 20 21 22 23 24 24 25 25 25 24 25 25 25 26 26 23 22 22 22 22 22 23 22 22 21 22 22 22 22 22 22 22 22 22 21 21
27 27 26 25 26 27 27 26 25 24 23 22 22 21 19 17 17 17 17 17 17 17 16 15 16 17 18 19 19 20 20 20 20 19 19 19 20 20 21 21 22 23 24 25 25 26 26 26 26 26 26 27 26 23 22 22 23 23 23 24 24 23 22 22 22 22 22 22 21 21 21 21 21 21
29 28 28 27 27 27 27 26 25 25 25 24 24 23 21 20 19 19 19 19 19 18 17 17 17 18 19 20 21 21 22 21 21 20 19 20 21 22 22 22 23 24 24 25 25 26 26 26 26 26 27 27 25 23 23 24 24 24 24 24 24 24 24 23 23 23 22 21 21 21 20 20 20 20
30 30 29 29 28 28 27 26 26 26 26 26 25 24 23 22 22 21 21 21 20 20 19 19 18 19 20 21 21 22 22 22 22 21 21 22 22 23 23 23 23 24 24 25 25 26 26 26 27 27 27 27 26 24 25 25 25 24 24 23 24 24 24 23 23 23 22 21 20 20 20 20 19 19
31 31 31 30 30 29 28 27 27 27 28 27 27 25 25 24 24 23 22 22 22 22 22 22 21 21 21 21 21 22 22 23 23 23 24 23 23 23 24 23 24 24 25 25 25 25 26 26 27 27 27 27 26 25 25 25 25 24 23 23 24 24 23 23 23 22 21 21 20 20 20 20 19 19
33 33 32 32 31 29 29 28 28 29 30 29 28 27 26 26 25 24 24 24 24 24 24 23 23 23 22 21 21 22 22 23 24 25 25 24 24 24 23 23 24 25 25 25 24 24 25 25 25 25 25 25 25 25 24 23 23 23 23 23 23 22 22 22 21 20 20 20 20 20 20 20 19 20
36 35 34 33 32 30 30 29 30 30 32 32 30 28 28 27 26 25 24 24 24 24 24 23 23 23 22 21 21 22 22 23 24 25 25 25 24 24 23 23 24 25 25 24 22 22 23 23 23 23 23 23 23 22 21 21 22 22 22 21 20 20 20 20 20 19 19 20 20 20 20 19 20 22
38 37 36 35 34 33 32 32 31 32 33 33 32 30 29 28 27 26 25 24 24 24 23 23 23 23 22 21 21 22 22 23 25 25 25 25 23 23 23 22 22 24 24 22 20 20 21 21 21 21 21 20 20 19 19 19 19 19 19 18 18 18 19 20 20 19 19 19 20 20 20 22 24 25
38 38 37 37 36 35 34 33 32 33 33 34 34 32 31 29 28 27 26 25 24 24 23 22 22 22 22 22 22 22 23 23 24 24 24 24 23 23 23 21 21 22 22 20 18 19 20 20 18 18 18 17 17 17 17 18 17 17 17 17 18 18 19 20 20 19 19 21 22 22 23 25 26 26
38 38 38 38 37 36 35 35 34 33 34 34 34 34 33 31 29 28 27 26 25 24 23 22 22 21 22 22 22 23 24 24 24 24 23 23 22 22 22 21 21 21 21 20 19 18 19 19 17 17 17 17 17 17 17 18 17 16 17 18 18 19 20 21 20 21 22 23 24 24 25 25 26 25
38 38 38 39 38 36 36 36 36 35 35 35 35 36 35 33 31 30 29 28 27 26 25 23 22 22 23 23 22 23 25 25 24 24 23 23 22 21 21 21 21 21 21 21 19 18 18 19 18 17 18 18 18 18 18 18 17 16 17 19 20 21 22 22 23 23 23 23 23 23 24 25 24 23
38 38 39 39 38 38 37 38 38 37 37 37 36 36 35 34 32 31 31 30 29 28 27 25 23 23 24 23 23 24 24 24 24 24 24 23 22 21 21 21 21 21 21 21 20 18 18 20 19 19 19 19 20 20 20 20 19 19 20 21 21 22 22 22 23 23 22 22 22 23 24 23 22 21
38 39 39 39 38 38 38 39 40 39 39 38 37 36 35 35 34 33 31 31 29 28 28 26 25 25 24 24 24 24 24 24 25 25 25 23 22 22 22 21 21 22 22 21 20 18 19 20 21 21 21 21 21 21 22 22 22 22 22 23 23 23 22 21 21 21 21 21 22 22 22 21 19 18
39 40 40 39 38 37 37 39 40 41 41 41 40 39 37 37 36 35 33 32 30 28 28 28 27 26 25 24 24 24 24 24 25 25 25 24 24 23 22 21 20 22 22 21 20 19 20 21 22 22 23 22 22 23 23 23 24 24 24 25 25 23 22 22 21 21 21 20 20 20 20 18 17 16
36 37 39 40 39 37 36 37 39 41 42 43 42 41 40 39 38 36 34 33 32 30 30 29 28 27 26 25 25 24 24 24 25 24 23 24 24 24 22 21 21 22 22 22 21 21 21 22 23 23 23 23 23 24 24 25 25 25 25 25 24 23 22 22 21 21 20 20 19 19 18 16 15 15
33 33 36 39 40 39 38 37 38 39 41 43 43 42 41 41 40 37 34 34 34 32 31 30 28 28 27 26 25 24 23 23 24 23 22 22 23 22 21 21 21 21 22 22 23 23 22 21 22 22 23 23 22 23 25 25 25 24 24 23 23 22 22 21 21 20 20 19 18 17 16 14 14 14
33 33 34 36 38 39 38 38 37 38 40 42 43 43 44 43 40 38 36 36 35 33 32 31 29 28 27 27 25 24 23 23 23 23 22 22 22 21 21 21 21 21 22 22 23 23 22 22 22 23 23 22 22 22 22 23 23 22 21 20 20 20 20 19 19 19 19 18 17 15 14 14 13 13
32 33 33 34 35 36 38 38 38 38 39 40 42 44 45 43 40 39 39 39 37 35 33 31 29 28 27 27 26 24 24 23 23 23 23 23 22 21 21 22 22 22 22 22 22 23 22 22 22 22 22 21 20 19 19 20 20 19 18 18 18 18 18 18 18 18 17 16 15 14 14 13 13 13
29 30 31 32 33 35 36 38 39 39 38 39 40 41 42 41 40 40 40 39 37 35 33 31 30 28 28 27 25 24 24 23 22 22 22 22 21 21 21 23 23 23 22 22 21 22 21 20 19 19 19 19 17 15 14 15 16 16 16 16 16 16 16 16 16 15 15 14 14 14 14 14 14 14
27 28 29 30 32 33 34 35 37 38 37 38 38 37 37 38 38 38 38 37 36 34 32 31 30 28 27 26 25 24 23 22 22 21 21 21 20 21 23 24 23 22 21 21 20 19 18 17 15 14 15 15 13 12 11 11 12 13 14 13 13 14 14 13 13 13 13 14 14 14 14 15 15 16
25 26 27 29 31 33 34 34 35 36 36 37 35 34 34 35 35 37 37 36 34 33 32 30 29 27 26 25 24 24 23 22 22 21 20 20 20 22 23 23 22 21 19 18 17 16 15 14 13 12 12 12 12 11 10 10 11 12 12 12 12 12 12 12 12 12 13 13 14 15 16 17 18 18
20 22 23 25 27 29 31 33 35 36 36 36 34 33 33 34 34 35 35 33 32 32 30 28 27 26 25 25 24 24 23 22 21 21 20 20 21 22 23 23 21 19 16 15 15 14 14 13 12 12 12 11 11 11 10 10 10 10 11 11 12 12 12 12 12 12 13 14 15 16 17 18 19 20
18 19 20 22 23 26 27 30 32 34 34 34 33 32 32 33 34 34 32 30 30 29 27 27 26 25 24 24 24 24 23 22 21 20 20 20 21 22 22 21 18 16 14 14 14 14 13 13 12 11 10 10 9 9 9 9 9 9 9 10 11 11 12 12 13 14 15 16 17 18 19 20 21 21
18 18 19 20 21 22 24 26 29 31 32 32 32 32 32 31 32 32 31 29 28 27 26 26 26 24 23 23 23 22 21 20 20 20 20 21 21 21 19 17 15 13 13 13 13 13 12 11 10 9 8 7 7 7 7 7 7 7 8 8 9 11 12 13 14 15 16 17 19 20 20 21 22 22
17 16 16 18 19 18 17 19 22 24 27 29 30 32 32 31 31 30 28 27 27 27 26 25 24 23 22 21 20 20 19 20 20 20 20 20 19 17 15 14 13 13 13 13 12 11 9 8 7 6 5 5 5 5 6 6 7 8 8 9 10 11 13 14 15 16 17 18 20 21 21 22 23 24
16 14 14 15 17 17 14 13 15 17 21 25 28 29 29 29 29 28 26 24 24 24 24 24 23 22 21 20 19 19 19 19 19 18 18 17 15 14 13 12 12 12 12 11 9 7 6 5 5 4 4 4 5 5 6 7 8 9 11 12 13 14 15 16 17 18 19 20 22 23 23 23 24 24
14 13 12 13 15 16 16 14 14 15 17 21 25 28 27 25 25 26 25 23 23 22 22 22 22 21 19 18 18 19 18 18 17 16 15 14 13 13 12 12 12 12 10 8 6 6 5 4 4 4 4 5 6 7 8 9 11 12 13 15 16 17 18 19 20 21 22 23 24 25 25 25 25 25
12 12 12 12 12 13 14 15 15 16 18 20 23 25 23 21 22 25 26 25 23 21 20 21 19 16 15 15 17 18 18 17 16 15 14 13 12 11 11 11 11 10 8 7 6 6 5 4 4 5 6 7 8 10 11 12 13 15 17 18 19 20 21 23 23 24 24 25 25 25 26 26 26 26
12 12 12 11 10 9 8 8 9 10 12 14 15 14 14 15 17 19 21 20 18 16 16 16 14 12 12 15 18 18 17 15 14 13 12 11 11 11 11 10 10 9 8 7 6 5 5 5 6 7 9 10 11 13 14 15 16 17 19 20 21 22 23 24 25 25 26 26 25 25 25 25 26 25
14 13 12 11 8 6 4 5 5 3 5 8 10 9 9 10 10 12 13 12 12 13 14 14 15 15 17 18 18 16 14 13 12 11 11 11 11 10 10 10 9 8 7 7 6 6 6 7 9 10 12 13 14 15 16 17 17 19 20 21 23 24 25 26 26 26 26 26 25 25 24 23 24 24
15 14 14 11 7 6 6 7 8 7 7 9 10 9 8 8 9 9 9 9 11 14 14 14 15 15 15 15 14 13 12 12 11 11 11 11 11 10 10 9 8 8 7 7 7 8 9 10 11 12 13 14 16 17 17 18 19 20 21 22 24 24 25 26 26 26 26 25 24 24 23 22 21 22
14 14 14 11 8 8 10 11 11 11 11 11 12 11 11 12 12 10 10 10 10 12 12 12 13 13 12 13 13 13 12 11 11 11 11 10 9 9 9 9 8 8 8 9 9 10 11 12 12 13 14 15 16 18 19 20 21 21 22 23 24 24 24 25 25 24 24 23 22 21 21 20 21 22
13 13 12 10 9 8 10 11 13 13 13 14 15 15 16 16 16 15 15 15 12 10 10 11 12 12 12 12 12 11 11 11 10 10 10 10 10 10 10 9 9 9 9 10 11 12 13 14 14 15 15 16 17 18 20 22 22 22 22 23 23 23 23 23 23 22 22 21 20 20 19 20 21 23
12 12 11 9 9 9 9 10 11 12 13 13 15 15 15 15 15 14 14 14 12 11 11 11 11 11 12 11 11 11 11 11 11 12 12 12 12 11 10 10 10 10 11 12 13 14 15 15 16 17 17 18 18 19 20 21 22 23 23 23 22 22 21 21 21 20 20 20 20 20 21 21 22 24
10 10 9 8 8 9 9 9 10 10 11 11 11 10 10 11 11 11 11 11 11 11 10 10 10 11 10 10 10 10 10 11 12 12 13 12 12 11 11 11 11 12 13 13 15 16 16 16 17 18 18 19 19 18 19 20 21 21 22 21 20 20 21 21 21 20 20 21 21 22 23 24 26 28
8 8 8 9 9 9 9 9 9 9 10 10 11 11 11 10 11 11 12 12 11 11 10 10 10 9 9 9 10 10 11 11 12 12 12 12 11 11 11 12 12 12 13 14 15 16 16 16 17 17 18 18 17 17 17 18 18 18 19 19 20 20 20 20 20 21 21 22 23 24 26 29 31 33
9 9 9 10 11 11 11 11 11 11 11 12 13 14 13 13 12 12 12 12 11 10 10 9 9 9 9 10 10 10 11 11 11 11 12 12 12 12 12 12 13 13 14 15 15 15 15 15 15 15 15 15 15 15 16 16 16 17 18 19 19 20 20 20 21 21 22 24 25 27 30 33 35 35
11 11 11 11 12 12 13 13 13 13 13 13 14 14 14 13 13 13 12 11 10 9 9 9 9 9 10 10 10 11 11 11 12 12 13 13 13 13 13 13 14 15 15 15 15 15 15 15 15 14 15 15 15 15 15 16 17 18 19 20 20 20 21 21 22 22 24 26 28 31 33 34 34 33
Wind_Direction
246 246 248 246 240 239 243 248 252 256 258 261 265 270 273 272 270 266 264 264 264 262 258 254 252 252 252 251 252 253 254 254 256 258 257 259 264 264 258 254 253 253 254 254 255 257 259 260 262 263 264 266 267 268 269 271 273 274 275 276 277 278 281 284 288 291 294 297 299 299 298 296 294 292
242 242 244 244 243 243 245 246 248 251 254 258 264 269 273 274 272 269 263 257 259 262 259 253 251 253 255 253 251 252 254 256 258 260 258 254 256 259 259 258 259 260 261 261 260 261 262 263 263 263 263 265 266 268 271 274 276 277 276 276 276 278 281 284 287 291 294 296 297 297 296 295 293 292
241 240 241 242 243 244 246 246 246 247 251 256 263 268 272 273 271 269 264 255 254 262 262 258 255 253 254 254 252 250 251 254 257 260 260 257 254 253 255 258 260 262 263 263 264 265 265 264 264 264 266 268 270 272 273 274 275 276 276 277 279 281 282 284 287 290 292 293 294 294 294 293 292 291
245 242 241 240 241 243 245 247 247 247 250 255 260 264 269 272 269 266 265 261 256 259 262 262 261 257 253 253 253 252 252 253 255 257 259 260 257 253 252 254 257 259 261 264 267 268 267 265 263 265 267 271 275 276 276 275 275 275 277 280 283 285 287 288 289 291 292 292 292 293 293 292 292 291
246 245 244 242 242 242 245 247 249 250 252 255 258 261 263 266 267 265 265 263 256 254 261 263 262 260 256 252 252 253 254 257 258 258 260 261 260 257 255 256 258 259 260 263 267 269 269 267 265 265 268 272 275 276 277 277 278 278 278 280 283 287 289 290 291 292 293 292 292 292 293 293 292 290
243 244 246 246 245 244 245 247 249 252 254 257 258 260 261 262 266 266 265 264 257 250 256 262 263 263 260 254 251 251 254 258 261 262 262 262 263 262 260 261 262 262 262 264 266 268 268 268 267 267 269 272 274 275 276 277 278 279 278 279 282 286 289 290 292 293 293 293 292 292 292 293 293 291
243 243 244 246 248 248 248 248 249 251 254 256 259 261 262 262 263 264 265 265 262 254 254 260 264 266 265 260 255 253 254 257 260 262 263 263 264 263 263 264 264 265 266 268 269 269 268 268 269 270 271 273 274 276 278 279 277 276 277 279 282 285 288 290 293 295 294 293 292 293 294 294 293 292
245 245 246 247 249 252 252 250 250 251 253 256 258 260 262 262 261 261 263 266 266 262 258 257 261 266 268 267 264 260 259 259 260 262 265 266 266 266 267 267 267 267 268 269 270 271 270 270 270 271 272 273 275 277 279 280 279 277 277 279 281 284 286 289 293 295 295 293 292 292 293 294 293 293
244 246 248 249 249 252 254 254 252 253 254 256 257 257 259 262 261 260 262 264 266 266 263 258 258 262 266 268 268 267 264 263 263 265 268 269 268 267 267 268 268 268 269 270 271 272 273 274 274 274 273 273 275 277 277 277 278 278 278 279 280 283 285 288 290 293 294 294 293 292 292 292 293 293
243 245 247 248 248 250 252 254 254 254 255 256 256 257 259 261 262 262 263 265 266 267 266 263 262 263 265 266 267 267 266 265 266 268 269 269 267 266 266 268 269 270 271 272 273 274 275 275 276 276 275 275 275 275 274 274 276 278 279 280 280 282 284 285 288 291 292 293 293 292 291 291 292 293
242 243 244 245 247 249 250 252 254 255 255 255 256 258 260 262 263 264 265 266 268 269 269 268 267 266 266 267 268 268 268 268 268 267 266 265 266 267 268 270 272 273 274 273 272 272 273 274 274 275 275 275 275 274 274 275 277 279 280 281 280 282 283 283 285 288 290 292 292 292 290 290 290 291
240 241 242 242 245 248 249 251 254 255 254 253 254 257 261 262 263 264 266 268 269 271 272 272 271 269 268 268 270 270 271 270 268 267 267 266 267 269 271 272 274 274 274 273 272 272 272 272 273 273 274 275 276 275 275 276 277 278 279 280 281 282 282 281 282 285 289 290 290 290 290 289 289 290
239 239 240 241 243 246 248 250 253 255 254 252 253 256 259 261 262 264 267 270 272 273 274 274 274 271 269 269 271 271 271 270 269 268 269 270 269 269 271 273 274 274 273 273 273 274 273 273 274 275 276 277 277 276 276 275 276 277 278 279 281 281 279 279 280 284 288 288 287 289 289 287 288 291
238 238 239 241 242 244 246 248 250 253 254 253 252 253 256 258 260 263 267 271 273 274 275 274 273 271 269 270 271 271 271 270 270 269 270 270 270 270 272 273 275 274 273 274 274 275 275 275 276 277 277 277 277 277 277 277 277 277 277 278 278 278 278 279 281 284 286 285 285 287 288 288 291 294
239 239 239 240 241 243 245 245 247 251 254 255 254 254 254 255 258 261 266 270 272 274 275 274 272 270 269 269 270 271 270 270 270 269 269 270 271 273 273 274 274 274 274 275 275 275 276 277 277 277 276 275 276 277 278 277 275 275 275 275 276 277 279 281 282 284 284 284 285 287 288 291 295 296
240 239 239 239 240 242 242 242 244 247 251 255 256 257 256 256 258 260 264 268 270 271 273 274 273 271 269 269 269 270 269 268 268 267 268 269 270 272 274 275 273 273 275 277 275 274 276 278 278 277 275 274 274 275 274 273 273 273 272 273 274 276 278 280 282 283 283 286 288 289 290 293 296 297
240 239 239 238 239 240 240 240 241 244 248 252 255 257 258 258 259 260 263 266 269 270 272 273 273 271 269 269 270 270 269 268 269 268 268 269 270 272 276 276 274 274 276 278 277 276 277 278 277 275 274 274 274 273 272 273 274 274 273 274 275 277 278 279 280 280 282 285 287 287 289 292 294 295
240 240 238 238 239 239 240 240 241 242 245 249 252 255 257 258 259 259 260 264 267 270 271 272 272 270 270 271 271 271 271 271 271 269 268 268 269 271 274 274 274 275 276 277 279 279 278 277 275 274 273 273 273 272 272 273 274 273 274 276 278 278 279 279 279 280 281 282 283 284 287 290 292 294
242 241 240 239 240 240 239 240 241 243 244 246 249 253 255 257 258 258 260 262 264 266 268 270 270 270 271 271 270 271 272 273 271 269 267 268 269 270 271 272 273 274 274 275 276 276 275 275 275 274 272 271 270 271 271 272 273 274 277 280 282 281 281 281 281 281 281 281 282 284 288 291 292 294
244 244 243 243 242 242 240 240 241 244 245 246 248 251 253 255 256 257 259 260 261 263 266 267 268 269 270 270 270 270 270 270 270 268 268 268 268 268 268 270 272 273 273 273 273 272 272 274 274 274 274 273 272 272 273 273 274 276 278 281 283 283 281 280 281 282 283 283 284 286 289 291 293 295
248 248 247 246 245 244 244 243 243 244 246 247 248 249 251 253 254 255 258 260 262 263 265 266 267 269 270 270 270 271 270 268 267 268 269 269 267 266 265 266 269 271 271 272 272 272 272 274 275 276 277 278 277 277 276 276 276 277 279 282 283 282 280 279 281 283 283 283 284 287 289 291 294 298
252 250 247 246 246 246 246 246 245 245 246 247 248 249 250 251 252 253 256 259 262 264 264 264 266 268 270 270 270 270 268 266 265 268 270 269 266 265 265 265 267 269 271 273 275 275 275 276 277 278 278 278 279 279 279 278 278 279 280 281 281 279 278 278 279 280 281 282 284 286 288 292 297 300
254 252 248 246 247 247 246 246 246 246 246 248 249 249 250 251 252 253 254 256 259 262 262 262 264 267 269 269 269 268 266 265 266 268 269 267 264 264 265 265 266 267 270 274 277 278 278 278 278 278 277 277 277 277 278 278 278 279 279 278 276 275 274 275 276 276 278 280 282 284 289 297 302 304
253 252 249 247 247 248 248 247 247 247 248 249 249 250 250 251 252 254 254 255 256 259 259 260 262 265 267 268 268 267 264 264 265 265 264 263 263 263 264 264 265 268 272 275 277 278 279 279 279 279 279 278 277 276 276 277 277 276 276 275 273 271 272 272 273 274 275 277 281 287 295 302 305 305
253 252 250 249 249 250 251 250 249 249 249 249 250 249 250 251 252 252 252 252 253 255 256 257 259 262 264 266 266 264 262 262 262 261 260 260 260 260 261 263 268 272 274 275 276 277 278 278 279 280 280 279 278 277 274 272 274 275 273 272 271 271 271 271 272 273 276 280 286 293 298 302 303 302
257 255 253 251 249 249 250 250 250 249 248 248 249 250 250 250 249 249 249 249 250 253 255 256 256 258 260 262 262 261 259 259 258 257 258 258 257 258 261 265 269 272 274 275 276 277 278 278 279 280 279 280 281 280 274 270 272 273 271 270 271 271 272 273 274 277 280 284 289 293 296 298 298 298
261 259 256 253 250 248 248 248 248 248 247 247 248 249 249 249 247 246 246 246 248 251 252 252 252 254 256 257 257 256 256 255 254 254 255 256 258 260 264 267 270 272 275 276 276 276 277 277 277 276 277 280 284 283 277 273 272 272 272 273 274 275 276 278 279 280 281 284 288 291 292 293 294 296
261 258 256 254 251 249 247 245 246 246 246 246 247 245 245 245 245 244 244 245 248 250 250 250 250 251 253 253 252 252 252 252 253 254 254 255 259 262 265 268 271 273 274 273 272 273 274 275 274 271 271 274 276 276 276 274 272 274 279 281 281 281 281 280 279 278 279 282 285 288 289 292 294 296
265 261 258 256 253 250 247 245 244 244 245 245 245 244 243 243 245 246 245 244 246 250 251 250 249 249 250 250 250 250 250 250 252 254 256 257 258 261 264 268 270 271 268 265 265 268 269 269 268 266 265 267 271 274 276 275 274 277 280 282 283 284 284 284 283 283 284 286 287 288 290 292 294 295
271 266 263 260 254 251 250 247 245 245 244 243 243 243 244 244 245 246 245 243 243 247 247 246 244 245 247 248 248 249 249 250 252 254 256 256 257 260 264 265 264 262 258 258 261 263 264 264 265 266 267 270 274 276 277 278 280 283 283 283 286 288 290 292 292 292 293 294 294 295 296 298 299 299
272 271 269 264 258 254 252 249 247 244 241 240 239 239 240 242 243 243 243 243 241 239 238 238 238 240 243 244 245 247 249 250 252 253 253 254 257 260 261 259 255 253 254 256 258 259 260 264 266 268 272 274 275 278 282 285 289 292 291 291 293 294 297 298 299 300 301 302 302 303 303 304 304 304
273 275 273 267 263 261 257 250 246 241 237 236 236 236 237 239 241 243 243 242 240 236 234 235 237 238 239 239 240 244 247 246 247 249 252 254 256 255 253 251 251 252 253 253 254 255 258 261 263 265 267 271 277 286 295 299 302 304 305 305 305 305 305 306 305 306 306 305 304 304 304 304 305 306
270 273 276 272 265 262 258 252 246 240 236 234 233 234 235 235 236 238 238 236 235 233 232 233 234 233 232 233 236 240 243 245 247 250 252 252 249 245 246 249 250 248 248 247 247 247 248 249 253 259 267 279 291 299 305 307 309 310 312 311 311 310 308 307 306 304 303 303 302 302 302 302 303 304
264 269 280 285 275 263 255 251 247 241 236 234 232 229 228 228 229 229 229 229 229 229 229 228 227 225 225 231 238 240 241 243 246 247 245 242 240 240 243 243 241 240 239 234 229 229 231 237 247 263 277 288 294 297 300 302 305 307 308 308 307 306 305 303 302 301 301 301 301 302 302 301 301 302
257 268 283 294 290 276 261 251 247 242 235 233 229 221 216 221 226 225 225 224 221 222 227 227 224 226 230 233 236 238 239 239 238 235 233 233 235 236 233 229 228 229 224 216 211 213 222 235 253 271 281 287 290 292 295 298 302 304 305 304 303 302 300 299 299 300 300 301 302 303 303 303 303 303
252 269 286 295 298 295 278 251 246 248 234 223 217 210 212 228 229 219 217 216 210 212 221 216 205 205 217 227 234 238 236 230 226 224 224 226 227 225 220 217 218 218 214 212 213 220 235 254 269 277 281 285 289 293 297 300 301 303 303 302 301 301 300 300 300 301 301 302 302 303 304 306 307 307
252 264 280 289 290 286 265 217 206 220 205 191 185 188 207 222 208 191 194 201 200 205 210 204 199 205 215 224 232 232 223 218 218 217 217 215 212 209 207 209 212 215 218 224 234 247 260 270 275 279 283 287 290 294 297 299 300 301 301 301 301 301 301 301 302 302 302 302 303 304 305 306 307 308
252 256 265 271 260 231 210 186 170 163 164 165 163 166 178 182 180 187 198 201 203 210 211 209 215 221 219 216 216 214 210 211 211 207 204 202 198 198 202 208 215 224 235 247 256 264 271 275 278 282 286 291 294 296 297 298 299 300 300 300 300 300 300 301 301 302 302 303 304 305 306 308 308 308
248 250 253 253 239 215 205 194 183 183 185 177 169 170 170 164 164 173 176 176 194 215 215 204 204 206 199 196 199 199 198 197 194 193 195 195 196 202 210 218 228 238 249 259 266 271 273 276 279 282 287 292 296 298 298 297 297 297 297 297 297 298 298 299 299 300 301 303 305 307 309 310 310 310
243 243 243 241 233 222 213 205 200 201 202 195 188 187 185 178 174 173 173 176 191 210 205 189 184 185 185 188 189 185 181 182 186 192 197 200 205 213 221 228 238 247 256 263 268 270 272 276 279 282 285 290 293 295 296 296 296 295 295 295 295 296 297 298 298 299 301 304 306 308 309 310 311 312
236 233 230 230 228 220 211 204 202 200 199 198 198 198 198 196 194 190 186 186 191 192 186 180 177 176 177 180 181 181 184 189 194 200 205 209 214 220 226 234 242 250 258 264 269 272 277 281 284 286 288 290 291 293 295 296 297 297 296 295 295 296 298 298 299 301 303 304 307 308 309 311 312 312
227 222 215 215 216 208 197 190 187 183 179 178 179 181 182 183 181 178 176 177 177 178 178 177 176 174 175 178 183 189 196 201 204 209 214 219 224 230 237 245 252 259 266 272 277 282 285 287 289 291 292 291 291 293 295 296 298 298 298 299 300 301 301 302 303 304 304 305 306 308 310 312 313 312
208 203 199 199 196 186 174 167 162 160 160 161 161 161 163 165 166 166 167 167 167 168 169 170 173 176 180 186 193 200 207 212 216 221 225 231 240 247 253 260 266 270 275 280 283 286 288 291 293 294 292 290 290 292 294 296 297 298 300 304 306 306 306 306 305 305 305 306 308 310 311 313 313 311
192 187 188 188 179 167 160 157 156 157 160 162 163 162 162 162 163 163 163 163 166 169 172 176 181 187 194 200 206 211 217 222 228 233 238 244 251 255 258 262 266 270 276 281 284 286 289 292 294 293 290 289 292 294 295 295 296 299 302 306 307 307 307 305 304 305 307 309 311 312 313 313 313 312
186 181 179 178 171 165 163 161 161 162 163 164 166 166 165 165 166 166 166 169 174 181 187 193 198 201 204 209 214 219 225 231 237 243 249 254 256 259 261 265 269 274 279 280 281 281 284 287 289 288 286 288 292 295 298 300 301 303 303 303 302 303 303 302 303 306 309 310 310 311 311 311 312 313
Height
3191 3191 3192 3192 3193 3192 3192 3192 3192 3192 3192 3192 3193 3193 3193 3193 3193 3193 3194 3194 3194 3194 3194 3195 3195 3195 3195 3196 3196 3197 3197 3197 3197 3198 3198 3199 3199 3200 3200 3200 3200 3200 3200 3200 3200 3200 3200 3200 3200 3200 3199 3199 3199 3199 3199 3198 3198 3198 3198 3197 3197 3196 3196 3195 3194 3194 3193 3192 3192 3191 3190 3189 3189 3188
3188 3188 3189 3190 3190 3191 3190 3190 3190 3190 3190 3190 3191 3191 3191 3191 3191 3192 3192 3193 3193 3192 3192 3193 3193 3193 3193 3194 3194 3195 3195 3195 3195 3196 3196 3197 3197 3197 3198 3198 3198 3198 3198 3198 3198 3198 3198 3198 3198 3198 3198 3198 3197 3197 3197 3197 3197 3196 3196 3195 3195 3194 3194 3193 3193 3192 3192 3191 3190 3189 3189 3188 3187 3187
3186 3186 3186 3187 3188 3188 3188 3188 3188 3188 3188 3188 3188 3189 3189 3190 3190 3190 3190 3191 3192 3191 3191 3191 3191 3191 3192 3192 3192 3193 3193 3193 3193 3194 3194 3195 3195 3195 3195 3196 3196 3196 3196 3196 3196 3196 3196 3196 3196 3196 3196 3196 3196 3195 3195 3195 3195 3194 3194 3193 3193 3193 3192 3192 3191 3191 3190 3189 3189 3188 3187 3187 3186 3185
3184 3184 3184 3185 3185 3186 3186 3186 3186 3186 3186 3186 3186 3187 3187 3188 3188 3188 3188 3189 3190 3190 3189 3189 3189 3190 3190 3190 3191 3191 3191 3191 3191 3192 3192 3193 3193 3193 3193 3193 3194 3194 3194 3194 3194 3194 3194 3194 3194 3194 3194 3194 3194 3194 3193 3193 3193 3192 3192 3192 3191 3191 3191 3190 3190 3189 3188 3187 3187 3186 3186 3185 3184 3184
3181 3182 3182 3183 3183 3183 3183 3183 3184 3184 3184 3184 3184 3185 3185 3186 3186 3186 3186 3187 3188 3188 3188 3188 3188 3188 3188 3189 3189 3189 3189 3189 3189 3190 3190 3191 3191 3191 3191 3191 3192 3192 3192 3192 3192 3192 3192 3192 3192 3192 3192 3192 3192 3191 3191 3191 3191 3190 3190 3190 3189 3189 3189 3188 3188 3187 3186 3186 3185 3184 3184 3183 3182 3182
3178 3179 3180 3181 3181 3181 3181 3181 3181 3182 3182 3182 3182 3182 3183 3183 3184 3184 3184 3185 3186 3186 3186 3186 3186 3186 3186 3187 3187 3187 3187 3187 3188 3188 3189 3189 3189 3190 3190 3190 3190 3189 3189 3189 3189 3190 3189 3189 3190 3189 3190 3189 3189 3189 3189 3189 3189 3188 3188 3188 3187 3186 3186 3186 3185 3184 3184 3183 3183 3182 3181 3181 3180 3180
3176 3176 3177 3179 3179 3179 3178 3178 3179 3179 3180 3180 3180 3180 3181 3181 3181 3181 3182 3182 3183 3184 3184 3184 3184 3184 3184 3184 3185 3185 3185 3185 3186 3186 3187 3187 3187 3187 3187 3188 3188 3187 3187 3187 3187 3187 3187 3187 3187 3187 3187 3187 3186 3187 3187 3187 3186 3186 3186 3185 3185 3184 3184 3183 3183 3182 3181 3181 3180 3180 3179 3178 3178 3177
3172 3173 3174 3176 3177 3177 3176 3176 3176 3177 3177 3178 3178 3178 3178 3179 3179 3179 3179 3180 3181 3181 3182 3182 3182 3182 3182 3182 3183 3183 3183 3183 3183 3184 3184 3184 3185 3185 3185 3185 3185 3185 3184 3184 3184 3184 3184 3184 3185 3185 3185 3184 3184 3184 3185 3185 3184 3183 3183 3183 3182 3182 3181 3180 3180 3180 3179 3178 3178 3177 3177 3176 3175 3175
3169 3170 3171 3172 3173 3174 3174 3174 3174 3175 3175 3175 3176 3176 3176 3177 3177 3177 3177 3178 3178 3179 3180 3180 3180 3180 3180 3180 3180 3181 3181 3181 3181 3181 3181 3182 3182 3181 3181 3182 3182 3182 3182 3181 3181 3181 3181 3181 3182 3182 3182 3181 3181 3182 3182 3182 3181 3181 3180 3180 3179 3179 3178 3178 3177 3177 3177 3176 3175 3175 3174 3174 3173 3173
3165 3166 3167 3169 3170 3170 3171 3172 3172 3172 3173 3173 3173 3173 3174 3174 3174 3175 3175 3175 3176 3177 3177 3178 3178 3178 3178 3178 3178 3178 3178 3179 3179 3179 3179 3179 3178 3178 3178 3178 3179 3179 3179 3179 3179 3178 3178 3178 3178 3179 3178 3178 3180 3180 3179 3179 3179 3178 3178 3177 3177 3176 3175 3175 3175 3174 3174 3173 3173 3172 3172 3171 3171 3170
3160 3162 3163 3165 3166 3166 3168 3169 3170 3170 3170 3170 3170 3171 3172 3172 3172 3172 3173 3173 3173 3174 3175 3175 3176 3176 3176 3176 3176 3175 3175 3175 3176 3176 3176 3175 3175 3175 3175 3176 3176 3176 3176 3176 3176 3176 3176 3175 3175 3176 3175 3175 3176 3177 3176 3176 3175 3175 3175 3175 3174 3173 3173 3172 3172 3172 3171 3171 3170 3170 3169 3169 3168 3167
3156 3157 3159 3160 3162 3163 3164 3165 3166 3167 3167 3167 3167 3168 3169 3169 3170 3170 3170 3171 3171 3171 3172 3172 3173 3173 3173 3173 3173 3173 3172 3172 3172 3172 3172 3172 3173 3172 3172 3173 3173 3173 3173 3173 3173 3173 3173 3172 3172 3172 3172 3172 3172 3173 3173 3173 3172 3172 3172 3172 3171 3171 3170 3169 3169 3169 3169 3168 3168 3167 3167 3166 3166 3165
3151 3153 3154 3156 3158 3159 3160 3161 3162 3163 3163 3164 3164 3165 3166 3166 3167 3167 3167 3168 3168 3168 3169 3169 3169 3169 3170 3170 3170 3170 3170 3169 3169 3169 3169 3169 3170 3170 3170 3170 3170 3169 3169 3170 3170 3170 3169 3169 3169 3169 3169 3169 3169 3169 3169 3169 3169 3169 3169 3169 3168 3168 3167 3167 3167 3167 3166 3166 3165 3165 3164 3164 3163 3162
3147 3148 3150 3152 3154 3155 3156 3157 3158 3159 3160 3160 3161 3162 3162 3163 3163 3164 3164 3165 3165 3165 3165 3166 3166 3166 3166 3167 3167 3167 3167 3166 3166 3166 3166 3166 3167 3167 3167 3168 3167 3166 3166 3167 3167 3167 3166 3166 3166 3166 3166 3166 3166 3166 3166 3166 3166 3166 3166 3166 3165 3165 3164 3164 3164 3164 3164 3164 3163 3163 3162 3161 3160 3159
3143 3144 3146 3148 3149 3151 3152 3153 3154 3155 3156 3157 3158 3158 3159 3159 3160 3160 3161 3161 3161 3161 3161 3162 3162 3162 3163 3164 3164 3163 3163 3163 3163 3163 3163 3164 3164 3164 3165 3165 3165 3163 3163 3164 3165 3164 3163 3163 3163 3163 3163 3163 3163 3163 3163 3163 3164 3164 3164 3164 3163 3163 3162 3162 3162 3162 3162 3161 3160 3160 3159 3158 3157 3156
3139 3140 3142 3143 3145 3147 3148 3149 3150 3151 3152 3153 3154 3155 3155 3155 3156 3157 3157 3157 3158 3158 3158 3158 3159 3159 3160 3160 3160 3160 3160 3159 3159 3160 3160 3161 3161 3161 3162 3162 3162 3161 3161 3161 3162 3162 3161 3161 3161 3160 3160 3160 3160 3161 3161 3161 3162 3162 3162 3161 3161 3161 3160 3160 3160 3159 3159 3158 3158 3157 3156 3155 3154 3153
3135 3136 3138 3139 3141 3143 3144 3145 3145 3146 3147 3149 3150 3151 3151 3152 3153 3153 3154 3154 3154 3154 3154 3155 3156 3156 3156 3157 3157 3156 3156 3156 3156 3157 3157 3158 3158 3158 3159 3159 3159 3159 3159 3159 3159 3159 3158 3158 3158 3158 3158 3158 3158 3159 3159 3159 3160 3161 3160 3159 3159 3158 3158 3158 3157 3157 3156 3156 3155 3154 3154 3153 3152 3151
3131 3133 3134 3135 3137 3139 3140 3141 3141 3142 3143 3144 3145 3146 3147 3148 3149 3149 3150 3150 3151 3151 3151 3152 3152 3153 3153 3154 3154 3153 3153 3153 3154 3154 3154 3154 3155 3155 3156 3156 3156 3156 3156 3156 3156 3156 3156 3155 3156 3156 3155 3156 3156 3156 3156 3157 3158 3158 3158 3157 3156 3156 3155 3155 3155 3154 3154 3153 3153 3152 3151 3150 3149 3147
3127 3129 3130 3131 3132 3134 3135 3137 3138 3138 3139 3140 3141 3142 3143 3144 3145 3146 3147 3147 3147 3147 3148 3148 3149 3150 3150 3150 3150 3150 3150 3150 3150 3151 3151 3151 3152 3152 3152 3153 3154 3153 3153 3153 3153 3153 3153 3153 3153 3153 3153 3153 3153 3153 3154 3154 3154 3154 3154 3154 3154 3153 3153 3152 3152 3151 3151 3150 3150 3149 3148 3147 3146 3145
3124 3125 3126 3127 3128 3129 3131 3133 3134 3135 3135 3136 3137 3138 3139 3140 3140 3142 3143 3144 3144 3144 3144 3145 3146 3146 3146 3147 3147 3147 3147 3147 3147 3147 3148 3149 3149 3149 3149 3150 3151 3151 3150 3150 3150 3151 3151 3151 3151 3151 3150 3151 3151 3151 3151 3151 3151 3151 3151 3151 3150 3150 3150 3149 3149 3148 3148 3147 3146 3146 3145 3144 3143 3142
3120 3121 3122 3123 3124 3125 3126 3128 3130 3131 3131 3131 3133 3134 3135 3135 3136 3138 3139 3140 3140 3140 3141 3141 3142 3143 3143 3143 3143 3143 3144 3144 3144 3144 3145 3146 3146 3146 3146 3147 3148 3148 3148 3148 3148 3149 3149 3149 3149 3148 3148 3148 3148 3148 3148 3148 3148 3148 3148 3147 3147 3147 3146 3146 3146 3145 3145 3144 3143 3143 3142 3141 3140 3139
3115 3116 3117 3118 3119 3120 3122 3124 3125 3126 3126 3127 3128 3130 3131 3131 3132 3134 3136 3136 3136 3136 3137 3138 3139 3139 3140 3140 3140 3140 3141 3141 3141 3141 3142 3142 3142 3143 3144 3144 3144 3145 3145 3145 3145 3146 3147 3147 3146 3146 3146 3145 3145 3145 3145 3145 3144 3144 3144 3144 3144 3143 3143 3143 3142 3142 3142 3141 3141 3140 3139 3139 3138 3138
3110 3111 3112 3113 3114 3115 3117 3118 3120 3121 3121 3121 3123 3125 3126 3126 3128 3131 3132 3132 3132 3133 3133 3134 3135 3136 3137 3137 3137 3138 3138 3138 3138 3139 3139 3139 3139 3140 3141 3141 3142 3142 3143 3143 3143 3143 3143 3144 3143 3143 3143 3143 3143 3143 3142 3141 3141 3141 3141 3141 3140 3140 3140 3140 3139 3139 3139 3139 3138 3138 3137 3137 3136 3136
3105 3106 3108 3109 3109 3110 3112 3113 3114 3115 3116 3116 3118 3119 3120 3121 3125 3128 3128 3128 3128 3129 3129 3130 3132 3133 3133 3134 3134 3135 3135 3135 3135 3136 3136 3136 3137 3137 3138 3138 3139 3140 3140 3140 3140 3140 3140 3141 3140 3140 3140 3139 3140 3140 3139 3138 3138 3138 3138 3137 3137 3137 3137 3137 3137 3137 3136 3136 3136 3136 3135 3135 3135 3134
3101 3102 3103 3104 3105 3105 3106 3107 3108 3109 3110 3111 3112 3113 3114 3117 3120 3122 3123 3123 3123 3124 3126 3127 3129 3130 3130 3130 3131 3131 3132 3132 3132 3133 3133 3134 3134 3135 3135 3136 3137 3138 3138 3138 3138 3138 3137 3137 3137 3137 3137 3136 3136 3137 3136 3136 3135 3135 3135 3135 3135 3135 3135 3135 3135 3134 3134 3134 3134 3134 3134 3133 3133 3132
3097 3097 3098 3099 3100 3100 3100 3101 3102 3103 3105 3105 3106 3107 3109 3112 3114 3116 3117 3117 3118 3120 3122 3124 3125 3126 3127 3127 3128 3129 3129 3129 3130 3130 3130 3131 3132 3132 3133 3134 3135 3135 3135 3135 3135 3135 3134 3135 3135 3134 3134 3133 3134 3134 3134 3133 3133 3133 3133 3133 3133 3133 3133 3133 3133 3133 3133 3132 3132 3132 3132 3131 3131 3130
3092 3093 3093 3094 3094 3094 3095 3096 3097 3098 3099 3099 3100 3103 3105 3106 3108 3110 3111 3113 3114 3116 3119 3120 3122 3123 3124 3124 3125 3126 3126 3126 3127 3127 3128 3128 3129 3130 3131 3132 3133 3133 3133 3133 3132 3132 3132 3132 3132 3132 3132 3131 3131 3132 3132 3132 3132 3131 3131 3131 3131 3131 3131 3131 3131 3131 3131 3130 3130 3130 3129 3128 3128 3127
3088 3088 3088 3089 3089 3089 3090 3091 3091 3092 3093 3095 3096 3098 3100 3102 3103 3104 3106 3109 3111 3113 3115 3117 3119 3120 3120 3121 3122 3122 3123 3123 3124 3125 3125 3126 3127 3128 3129 3130 3130 3130 3130 3130 3130 3130 3130 3130 3130 3130 3130 3130 3130 3130 3130 3130 3130 3130 3130 3130 3129 3129 3129 3129 3129 3129 3129 3128 3128 3127 3126 3126 3125 3124
3085 3085 3085 3085 3085 3085 3085 3086 3086 3087 3088 3090 3092 3094 3096 3098 3099 3100 3102 3105 3107 3109 3111 3114 3115 3116 3117 3118 3118 3119 3120 3121 3122 3123 3123 3124 3125 3126 3127 3127 3128 3128 3128 3128 3128 3128 3128 3128 3128 3128 3128 3128 3128 3128 3129 3129 3129 3129 3128 3128 3128 3128 3128 3127 3127 3127 3126 3126 3125 3125 3124 3124 3123 3122
3081 3081 3081 3081 3081 3081 3081 3081 3082 3082 3084 3086 3088 3090 3092 3094 3095 3096 3098 3101 3103 3105 3107 3109 3111 3112 3113 3114 3114 3115 3117 3118 3119 3120 3121 3122 3123 3124 3124 3125 3125 3125 3126 3126 3126 3126 3126 3126 3126 3127 3127 3127 3127 3127 3127 3127 3127 3127 3127 3127 3127 3126 3126 3126 3125 3125 3124 3124 3123 3123 3122 3121 3121 3119
3078 3078 3078 3078 3077 3077 3077 3076 3077 3078 3080 3082 3084 3086 3088 3089 3091 3092 3094 3097 3100 3101 3103 3104 3106 3108 3109 3110 3112 3113 3115 3116 3117 3118 3119 3120 3120 3121 3122 3123 3123 3123 3123 3123 3124 3124 3124 3125 3125 3125 3126 3126 3126 3126 3126 3126 3126 3126 3126 3126 3126 3125 3125 3124 3124 3123 3122 3122 3121 3120 3120 3119 3118 3117
3075 3075 3075 3074 3074 3073 3073 3072 3072 3074 3075 3077 3079 3081 3083 3085 3086 3088 3091 3094 3096 3097 3099 3100 3102 3104 3105 3107 3109 3111 3112 3114 3115 3116 3117 3118 3118 3119 3120 3120 3121 3121 3122 3122 3122 3123 3123 3123 3124 3124 3125 3125 3125 3125 3125 3125 3125 3125 3125 3125 3124 3124 3123 3122 3122 3121 3121 3120 3119 3118 3117 3117 3115 3114
3072 3072 3072 3072 3071 3071 3070 3070 3070 3071 3072 3073 3075 3077 3079 3082 3083 3085 3087 3090 3092 3094 3095 3097 3099 3100 3102 3104 3106 3108 3110 3111 3112 3114 3115 3115 3116 3117 3118 3119 3119 3120 3120 3120 3121 3121 3122 3122 3123 3123 3123 3123 3124 3124 3124 3124 3124 3124 3123 3123 3122 3122 3121 3120 3120 3119 3118 3117 3116 3115 3114 3114 3113 3111
3070 3070 3070 3070 3069 3069 3069 3068 3068 3069 3070 3071 3071 3073 3076 3080 3082 3083 3084 3086 3088 3091 3093 3095 3096 3098 3099 3102 3104 3106 3107 3109 3110 3111 3112 3113 3114 3115 3116 3117 3118 3118 3119 3119 3120 3120 3121 3121 3122 3122 3122 3122 3122 3122 3123 3123 3122 3122 3121 3121 3120 3119 3119 3118 3117 3117 3116 3115 3114 3112 3111 3110 3110 3108
3069 3068 3068 3068 3067 3067 3067 3067 3067 3068 3069 3069 3069 3070 3074 3078 3079 3080 3082 3083 3085 3088 3090 3091 3093 3095 3098 3100 3102 3104 3105 3107 3108 3109 3110 3112 3113 3114 3115 3116 3116 3117 3117 3118 3118 3119 3119 3120 3120 3120 3121 3121 3121 3121 3121 3121 3120 3120 3119 3118 3117 3117 3116 3115 3114 3114 3113 3112 3111 3110 3108 3106 3106 3105
3067 3067 3067 3067 3066 3066 3066 3066 3067 3068 3068 3068 3069 3071 3073 3075 3077 3078 3080 3082 3084 3086 3088 3090 3092 3095 3097 3099 3101 3102 3103 3105 3106 3107 3109 3110 3111 3112 3114 3114 3115 3116 3116 3117 3117 3118 3118 3118 3119 3119 3119 3119 3119 3118 3118 3118 3118 3117 3116 3115 3115 3114 3113 3112 3111 3111 3110 3109 3108 3107 3106 3104 3102 3101
3066 3066 3066 3066 3066 3066 3066 3066 3067 3068 3068 3069 3071 3072 3073 3074 3076 3078 3081 3083 3085 3087 3089 3091 3093 3095 3096 3097 3099 3101 3102 3103 3105 3106 3107 3109 3110 3111 3112 3113 3114 3115 3116 3116 3116 3116 3116 3117 3117 3117 3117 3117 3116 3116 3116 3116 3115 3115 3114 3113 3112 3111 3110 3109 3108 3107 3107 3106 3105 3104 3103 3102 3100 3098
3064 3064 3065 3065 3065 3066 3066 3067 3068 3069 3070 3070 3072 3073 3074 3076 3077 3079 3082 3084 3086 3087 3089 3091 3092 3093 3094 3096 3098 3099 3101 3102 3104 3105 3106 3108 3109 3110 3111 3113 3114 3114 3114 3115 3115 3115 3115 3115 3115 3115 3115 3115 3114 3114 3113 3113 3113 3112 3111 3110 3109 3108 3107 3106 3105 3104 3103 3102 3102 3101 3100 3099 3098 3096
3062 3062 3063 3063 3064 3065 3066 3067 3068 3069 3071 3072 3073 3074 3075 3077 3078 3080 3082 3085 3086 3087 3088 3089 3091 3092 3093 3095 3096 3098 3100 3101 3103 3104 3106 3107 3108 3110 3111 3112 3112 3113 3113 3113 3113 3114 3114 3114 3114 3114 3113 3113 3112 3111 3111 3110 3110 3110 3109 3107 3106 3105 3104 3103 3102 3101 3100 3099 3099 3098 3097 3096 3095 3094
3060 3060 3061 3061 3062 3063 3064 3066 3067 3069 3070 3071 3073 3074 3075 3076 3078 3079 3081 3084 3086 3087 3087 3088 3089 3090 3092 3094 3095 3097 3099 3101 3102 3104 3105 3107 3108 3109 3110 3110 3111 3111 3112 3112 3112 3112 3112 3112 3112 3111 3111 3111 3110 3109 3108 3107 3106 3106 3106 3105 3103 3102 3101 3100 3099 3098 3097 3097 3096 3096 3095 3094 3092 3091
3058 3059 3059 3060 3061 3062 3063 3064 3065 3067 3068 3070 3071 3073 3074 3075 3077 3079 3080 3082 3084 3085 3086 3087 3088 3090 3091 3093 3095 3097 3098 3100 3101 3103 3104 3106 3107 3108 3108 3109 3109 3109 3110 3110 3110 3109 3109 3109 3109 3109 3109 3108 3108 3107 3105 3104 3103 3102 3102 3101 3100 3099 3098 3097 3097 3096 3095 3094 3094 3093 3092 3091 3090 3089
3056 3057 3058 3059 3060 3061 3062 3063 3064 3066 3067 3068 3070 3071 3073 3075 3077 3078 3080 3082 3083 3084 3085 3087 3088 3090 3091 3093 3094 3096 3098 3099 3101 3102 3103 3104 3105 3106 3107 3107 3107 3108 3108 3108 3107 3107 3107 3107 3107 3106 3106 3105 3105 3104 3103 3101 3100 3099 3098 3097 3097 3096 3096 3095 3094 3093 3092 3092 3091 3090 3089 3089 3088 3086
3055 3056 3057 3058 3059 3060 3061 3062 3064 3065 3067 3068 3069 3071 3073 3075 3076 3078 3079 3081 3082 3083 3085 3086 3088 3090 3091 3093 3094 3096 3097 3098 3100 3101 3102 3103 3104 3104 3105 3105 3106 3106 3105 3105 3105 3105 3105 3105 3104 3104 3103 3103 3102 3102 3100 3099 3098 3097 3095 3095 3094 3093 3093 3092 3091 3090 3090 3089 3088 3087 3086 3085 3084 3082
3054 3055 3056 3057 3058 3060 3061 3062 3064 3065 3066 3068 3070 3071 3072 3074 3076 3077 3079 3080 3082 3083 3085 3086 3088 3090 3091 3093 3094 3095 3096 3097 3099 3100 3101 3101 3102 3103 3103 3103 3103 3103 3103 3102 3102 3102 3102 3102 3102 3101 3101 3100 3100 3099 3098 3097 3097 3095 3094 3093 3092 3091 3090 3090 3089 3088 3087 3086 3085 3084 3083 3081 3079 3077
3053 3054 3055 3057 3058 3059 3061 3062 3063 3065 3066 3068 3070 3071 3072 3074 3075 3077 3078 3080 3082 3083 3085 3086 3088 3089 3091 3092 3093 3094 3095 3096 3097 3098 3099 3099 3100 3100 3100 3101 3100 3100 3100 3100 3100 3099 3099 3099 3099 3099 3098 3098 3097 3097 3096 3095 3095 3094 3093 3092 3091 3090 3089 3087 3086 3085 3084 3083 3082 3080 3078 3076 3075 3073